User: anonymous   Login
Location: Mentone
(34.5413°N, 85.5351°W)
Time: 10:42:32
(UTC-05:00)
Language:

Cosmos 2150 Rocket - Orbit

View from above orbital plane
View from above orbital plane
View from above satellite
View from above satellite

Ground track
Ground track

The orbit data is extracted from the following two-line orbital elements,

1 21419U 91041B   16268.93766072 -.00000058  00000-0 -11421-4 0  9993
2 21419  74.0378  64.6757 0040278  55.7541  67.3094 14.33826115322450
Epoch (UTC): 24 September 2016 22:30:13
Eccentricity: 0.0040278
inclination: 74.0378°
perigee height: 750 km
apogee height: 808 km
right ascension of ascending node: 64.6757°
argument of perigee: 55.7541°
revolutions per day: 14.33826115
mean anomaly at epoch: 67.3094°
orbit number at epoch: 32245

The dashed part of the orbit path shows where the satellite is in the earth's shadow,  

DLR